Location: Brno
(49.2000°N, 16.6330°E)
Time: 21:20:26
(UTC+02:00)

Explorer 11/Cluster Stage 4 - Pass Details

Date: 26 July 2021
Orbit: 467 x 1257 km, 28.8° (Epoch: 17 September)

Event Time Altitude Azimuth Distance (km) Brightness Sun altitude
Rises 14:51:32 0° 235° (SW) 3,867 10.7 52.7°
Reaches altitude 10° 14:57:31 10° 198° (SSW) 2,665 10.0 52.0°
Maximum altitude 14:58:26 10° 190° (S) 2,599 9.9 51.9°
Drops below altitude 10° 14:59:21 10° 181° (S) 2,580 9.8 51.7°
Sets 15:04:28 0° 141° (SE) 3,256 9.8 51.1°
